Location: Emory University Observatory
(33.7903°N, 84.3267°W)
Time: 18:19:03
(UTC-04:00)

Hubble Space Telescope - Pass Details

Date: 08 October 2017
Orbit: 537 x 541 km, 28.5° (Epoch: 23 October)

Event Time Altitude Azimuth Distance (km) Brightness Sun altitude
Exits shadow 05:27:10 25° 132° (SE) 1,094 2.6 -27.7°
Drops below altitude 10° 05:29:16 10° 113° (ESE) 1,788 4.1 -27.2°
Sets 05:31:38 0° 106° (ESE) 2,679 5.3 -26.8°
